GFSSE_prec_cthk_159.txt.gz
RH
84 86 78 75 74 72 70 69 70 70 67 67 67 67 66 66 71 71 68 57 57 55 49 44 41 41 52 59 64 68 66 60 57 58 56 60 62 67 59 51 53 52 62
80 84 79 75 76 77 73 69 71 68 67 70 70 72 71 67 69 66 60 53 50 48 41 39 39 42 49 55 60 64 66 63 55 59 63 60 58 52 46 46 48 47 50
79 79 82 83 80 80 79 72 72 69 73 76 73 75 74 60 63 64 54 51 48 41 37 36 40 44 48 51 54 59 60 50 52 58 54 59 48 48 46 49 49 47 45
78 78 79 85 83 82 78 75 74 72 75 77 80 85 70 62 62 60 58 52 43 38 37 35 37 42 48 48 53 53 47 40 38 42 44 45 45 46 45 48 50 54 58
77 79 82 84 83 82 77 78 79 77 78 82 84 81 63 62 61 60 55 50 39 35 34 32 30 36 38 43 43 44 48 48 51 54 57 58 60 61 61 55 53 57 60
74 77 76 79 82 81 80 80 80 82 80 82 79 76 68 59 67 59 53 48 33 29 27 26 26 31 33 42 49 47 50 57 64 66 69 64 65 70 72 66 54 58 62
70 73 76 78 81 82 81 79 80 81 81 83 75 73 66 64 74 56 51 36 25 21 21 21 26 32 34 45 53 57 62 68 71 69 72 69 71 72 72 70 66 62 61
64 69 75 79 78 84 82 80 82 81 82 80 77 66 61 73 69 55 49 27 20 19 20 22 26 33 43 56 58 64 64 68 72 70 71 70 73 73 74 71 71 68 69
71 70 82 77 77 78 79 78 77 79 79 79 75 65 66 78 61 53 40 24 20 20 24 25 29 40 49 61 61 62 66 70 71 71 70 69 70 76 74 75 73 72 72
76 75 81 84 81 80 79 76 78 81 80 78 71 66 76 74 53 47 34 23 23 27 30 31 36 44 50 57 65 67 69 70 72 70 69 67 66 73 78 91 79 71 68
77 77 79 83 83 77 78 78 82 88 83 78 72 74 80 68 49 42 30 25 28 31 34 40 48 54 60 61 62 69 70 66 68 68 66 63 65 67 74 89 77 85 81
85 89 87 84 83 79 83 86 90 89 81 73 77 81 76 61 46 40 28 27 34 39 39 41 49 55 58 62 64 69 71 66 66 67 65 62 60 63 64 69 71 70 70
85 88 86 89 85 83 85 91 91 88 81 75 79 76 69 54 38 34 25 32 39 42 42 42 48 54 57 61 61 65 65 65 64 60 60 59 58 65 88 67 75 74 72
82 84 88 89 87 86 87 90 88 88 85 83 82 72 62 45 32 27 25 31 37 43 42 43 51 51 54 57 61 59 62 59 61 56 55 58 63 68 67 71 72 70 67
80 82 82 84 87 86 88 90 86 82 85 86 81 70 57 38 34 29 30 35 39 39 42 40 45 45 47 53 57 59 59 53 52 53 54 60 69 71 67 67 70 69 66
72 76 79 81 84 86 86 85 85 83 86 85 69 57 41 36 33 30 31 36 40 40 42 40 41 43 44 46 50 53 55 49 55 52 56 59 65 63 60 59 60 61 59
63 68 74 78 82 86 85 87 88 85 80 74 64 49 42 37 36 32 34 35 43 49 44 41 42 43 41 41 41 45 53 48 54 58 67 68 63 65 64 56 55 54 58
60 62 63 74 78 83 85 88 87 77 77 71 65 51 56 51 39 41 40 44 47 51 44 39 42 43 39 38 40 43 51 47 49 51 69 70 69 72 63 55 56 58 54
65 60 60 65 78 80 84 86 79 82 76 73 76 68 46 47 46 62 57 48 44 52 48 42 51 47 39 36 40 43 47 47 49 54 64 66 72 71 65 71 58 56 61
63 58 59 54 69 76 80 80 84 78 79 80 81 74 58 43 54 59 48 48 46 51 53 42 60 57 40 41 47 49 47 62 58 62 58 66 61 62 59 74 62 65 64
64 65 62 59 54 66 77 78 81 85 83 79 75 61 56 41 48 50 59 57 52 59 51 53 46 49 45 47 61 59 58 64 67 59 59 61 62 68 60 56 58 67 71
58 66 63 60 53 53 62 70 72 74 75 79 76 64 59 54 41 39 48 54 54 55 59 56 46 46 54 50 50 52 58 54 61 58 69 70 70 62 56 51 57 66 78
52 56 59 59 60 53 51 57 62 65 68 67 64 57 55 49 44 40 39 45 44 43 42 49 48 50 50 48 45 43 46 49 48 48 59 74 61 56 56 57 59 66 76
48 51 56 59 60 59 55 50 50 57 63 61 59 59 53 53 46 38 33 31 38 42 32 37 46 48 46 46 45 46 46 45 46 47 60 59 56 56 55 57 62 64 76
47 46 49 54 58 60 61 55 53 56 57 58 57 54 49 48 45 39 36 33 33 35 34 32 36 44 40 41 47 51 52 48 50 47 51 53 50 50 54 58 63 61 75
49 44 46 48 49 52 58 61 58 58 62 58 51 52 55 53 50 42 37 34 30 28 31 32 32 36 36 34 37 44 51 57 54 52 51 55 54 50 52 54 65 67 71

GFSSE_prec_cthk_162.txt.gz
RH
77 82 82 79 76 73 70 68 70 71 72 76 71 71 70 74 75 72 60 56 54 50 45 41 41 50 58 63 64 62 61 60 63 62 58 58 69 67 61 57 55 58 75
75 78 79 78 76 76 74 71 71 68 71 72 71 72 73 75 75 67 57 52 51 41 40 43 42 51 55 59 63 63 61 55 55 63 66 66 59 52 51 47 48 47 63
78 78 77 82 83 78 74 72 71 67 71 73 75 78 71 69 70 62 53 48 43 37 38 38 41 47 50 53 58 56 50 51 58 58 61 55 50 45 44 44 45 45 46
78 78 73 80 83 83 77 74 73 70 76 77 80 78 69 65 68 60 56 47 38 36 38 37 42 45 47 50 52 43 40 40 44 46 48 50 48 46 45 46 50 50 48
77 78 78 81 86 85 80 76 75 75 75 79 85 74 66 64 64 61 53 44 36 35 35 33 37 38 42 46 45 45 48 53 55 56 57 60 63 63 57 47 51 56 59
79 78 81 83 83 84 81 80 78 76 78 86 85 69 65 61 64 55 50 37 32 29 27 27 30 34 40 41 47 50 55 57 63 65 66 65 67 67 63 52 53 57 58
78 84 85 80 84 83 81 82 82 83 83 85 73 76 60 71 66 53 45 29 25 24 22 25 28 35 45 46 51 55 59 61 66 67 70 70 71 69 66 63 58 58 55
74 78 82 81 82 84 84 81 83 85 86 83 75 68 65 74 65 51 36 23 20 19 21 27 32 39 49 52 57 57 62 66 68 70 70 71 73 79 72 70 67 63 63
70 74 81 78 83 86 86 84 84 86 85 81 75 64 71 72 62 46 29 20 19 21 24 27 38 45 52 55 57 61 65 66 67 67 67 69 71 87 76 72 68 67 68
69 73 82 83 80 83 81 80 82 82 81 82 72 67 81 71 57 40 28 20 22 26 28 32 40 50 55 55 60 62 63 66 66 65 66 68 68 77 87 75 82 74 72
75 77 81 85 85 81 83 80 81 86 82 82 72 71 80 69 52 38 27 24 28 30 32 38 44 49 55 55 60 64 63 61 66 64 62 64 64 64 81 83 73 74 74
75 76 78 81 86 84 83 84 86 94 86 78 76 87 79 65 46 36 28 27 30 37 40 48 57 53 58 56 58 64 61 60 63 62 59 57 60 71 68 79 74 70 72
82 86 84 81 84 79 82 86 90 94 87 77 84 87 74 61 44 36 30 30 38 39 42 52 56 56 59 59 62 59 60 62 57 53 54 58 64 63 65 66 71 70 81
84 87 85 84 86 82 85 90 93 93 80 76 80 80 71 58 40 35 33 38 40 39 40 48 54 56 60 58 58 58 58 58 60 55 57 62 63 61 62 62 67 70 73
83 84 88 88 88 85 85 92 90 90 81 82 79 73 67 52 35 31 35 38 40 41 39 45 56 53 55 56 57 58 53 49 51 55 59 62 63 61 58 58 61 63 63
76 80 84 86 89 89 87 90 88 88 87 86 81 71 63 45 33 31 33 36 39 41 39 40 47 49 51 51 51 54 52 49 59 58 64 67 62 63 61 55 55 57 56
70 74 77 81 83 86 86 88 85 81 86 83 78 69 54 41 34 30 32 38 39 43 44 38 41 44 45 46 44 44 49 47 56 59 72 71 70 68 54 50 55 56 58
62 63 69 78 83 85 87 85 85 86 87 76 65 55 45 40 36 30 31 42 45 51 46 40 41 44 43 42 43 45 48 49 55 53 70 69 73 66 65 59 56 60 62
59 61 64 74 78 84 85 87 86 84 79 74 68 54 58 48 41 35 38 42 46 53 47 42 43 45 42 40 43 46 47 49 53 56 64 67 65 61 63 70 60 64 68
63 58 58 68 78 82 85 87 86 76 76 73 72 63 57 53 45 56 62 46 46 56 54 47 55 58 48 40 46 50 52 59 64 63 56 61 64 64 57 60 65 70 73
60 59 58 59 72 74 77 86 81 81 76 76 79 80 78 53 47 60 56 49 53 52 54 52 44 53 50 43 51 59 58 61 65 61 66 69 61 66 54 56 59 77 79
61 65 61 58 59 72 75 80 81 80 79 80 79 73 62 51 43 56 53 62 61 58 59 54 57 45 53 50 52 54 57 55 59 58 70 74 66 55 60 57 60 75 82
54 59 63 58 54 55 68 73 78 80 77 80 74 73 69 61 53 40 41 50 55 56 58 61 56 50 51 49 50 49 44 45 45 49 57 64 60 59 57 57 62 70 81
49 51 58 60 59 56 55 61 67 69 69 71 75 71 65 59 55 48 42 39 44 47 49 44 44 49 55 46 46 51 47 47 43 45 53 54 51 55 56 58 63 67 79
51 50 49 58 61 60 55 54 56 56 59 62 65 64 62 58 55 49 44 39 34 36 44 39 37 38 48 47 44 48 52 55 49 47 46 51 50 50 53 59 59 61 74
52 47 46 49 56 59 60 57 54 53 53 61 63 59 61 59 55 49 46 41 38 36 35 35 37 33 36 42 42 40 46 49 58 58 52 49 49 51 49 53 60 68 65

GFSSE_prec_cthk_165.txt.gz
RH
81 79 80 77 73 70 72 74 78 77 79 79 72 69 72 73 71 60 57 55 55 45 41 40 49 58 63 65 62 63 63 66 65 59 58 63 71 64 57 57 57 70 76
79 77 83 79 73 71 69 71 72 74 76 72 70 70 72 73 65 58 52 51 44 40 41 40 51 55 59 62 62 60 54 53 55 61 64 65 59 57 53 49 48 61 79
77 78 77 78 75 75 74 74 71 71 73 71 72 71 69 70 62 53 48 46 39 38 36 44 47 51 55 57 55 50 48 53 58 59 59 57 50 44 45 48 50 47 60
77 77 77 80 78 76 75 75 71 72 72 74 78 71 67 65 62 53 47 42 37 36 37 41 44 46 52 54 45 45 47 51 49 48 51 54 53 48 45 47 52 51 49
78 75 74 79 83 84 76 77 73 75 79 85 86 72 67 69 59 54 49 40 37 35 35 38 42 47 51 48 45 50 52 56 59 60 63 62 63 56 46 47 53 56 59
78 75 72 76 83 87 81 78 77 78 77 89 84 65 63 63 58 54 43 38 40 33 33 37 39 45 45 52 52 53 57 60 62 67 64 65 66 68 57 51 55 56 57
78 78 78 81 83 86 85 81 79 78 84 90 74 71 63 66 54 54 39 34 30 26 28 32 40 46 45 49 56 60 65 65 63 64 69 66 73 70 68 58 59 53 53
77 81 96 81 83 83 82 85 83 84 87 81 76 69 68 69 54 47 29 25 24 23 27 33 41 47 52 57 61 65 67 67 67 66 66 67 73 69 70 71 67 63 61
75 82 84 78 81 83 84 82 82 84 88 79 73 66 73 69 54 41 23 20 21 23 29 38 44 52 58 60 63 65 67 68 68 68 69 69 74 72 72 68 68 67 66
70 76 82 79 80 84 84 81 82 85 85 79 74 72 74 69 52 37 21 20 24 27 30 38 46 51 55 58 63 64 66 66 67 64 63 63 71 80 79 68 64 71 68
67 72 76 82 83 86 82 81 82 84 86 86 71 77 80 65 46 36 22 23 29 29 35 42 48 54 54 57 62 63 64 64 65 66 65 63 68 70 75 74 70 77 77
70 72 78 81 82 81 82 84 83 85 85 86 71 78 78 60 42 34 23 27 31 33 39 47 49 54 57 59 61 60 62 63 62 62 64 63 65 65 66 70 72 81 82
72 71 74 79 81 82 85 85 85 87 90 84 79 85 74 55 38 32 26 31 37 41 47 54 54 59 58 61 61 60 60 63 61 60 61 64 63 58 61 67 72 77 77
80 82 79 77 83 83 83 86 88 93 89 87 86 85 71 55 37 34 28 35 40 42 48 54 54 57 58 59 63 60 55 56 59 58 66 70 68 69 60 62 68 70 73
84 86 81 81 83 80 82 88 92 93 87 84 85 81 69 54 36 33 31 38 41 40 41 48 52 55 55 58 60 61 55 53 55 62 71 70 71 68 61 62 70 74 74
83 84 88 86 86 84 84 88 91 90 83 82 78 74 66 52 34 32 33 39 41 40 39 46 51 50 52 53 54 59 56 59 62 64 78 76 75 62 57 64 63 66 70
76 80 83 85 87 87 86 89 91 89 85 89 80 72 62 48 33 31 34 39 42 40 38 42 44 46 47 50 48 49 53 53 56 60 75 74 76 71 67 69 67 69 68
68 70 76 79 82 86 86 87 87 87 89 87 82 71 57 39 32 29 31 36 40 42 43 39 38 42 42 46 46 48 50 51 54 57 66 68 66 68 72 73 72 73 72
61 61 64 76 80 84 87 87 86 84 90 80 67 61 51 40 35 31 32 42 43 49 50 42 39 42 40 42 44 48 51 54 62 63 63 65 67 61 62 64 75 80 80
59 60 58 72 77 82 86 86 85 87 88 77 69 58 49 48 43 39 40 44 40 54 55 47 47 56 51 42 43 50 54 60 67 60 67 68 64 61 57 58 75 82 84
58 56 56 63 72 78 81 83 83 81 78 71 70 60 59 62 47 50 62 51 43 50 54 53 52 51 53 46 47 58 61 59 67 65 70 74 67 59 59 57 68 82 83
56 57 57 57 70 74 76 81 83 75 78 76 74 80 77 65 52 47 59 52 50 54 57 55 57 51 47 50 49 55 57 56 58 56 61 69 62 58 57 59 67 79 83
53 59 60 56 61 70 73 80 82 80 77 78 77 82 80 59 49 49 57 56 63 61 57 59 60 59 55 53 50 57 52 49 48 49 51 55 58 58 60 59 62 73 85
49 55 60 57 52 59 68 75 79 79 77 78 76 78 76 67 58 49 41 40 44 50 50 53 59 53 51 57 49 51 50 52 55 54 53 53 50 51 54 57 58 64 77
47 47 54 57 56 55 55 62 71 73 74 78 75 76 75 67 61 57 51 46 40 39 38 41 45 40 42 50 55 50 47 48 55 59 55 53 54 52 52 54 59 58 67
48 46 44 52 57 58 57 54 56 58 62 63 64 66 66 65 61 56 51 47 43 37 35 37 36 36 38 37 42 52 53 51 53 55 60 62 56 47 48 47 52 59 63

GFSSE_prec_cthk_168.txt.gz
RH
80 79 83 85 84 84 80 80 76 81 81 72 70 73 71 70 61 59 56 57 49 43 43 51 59 64 65 64 64 63 65 68 68 63 62 67 69 65 62 65 73 77 68
76 79 82 77 73 69 72 77 77 78 78 70 69 70 73 67 58 54 52 51 45 41 42 51 57 60 62 62 61 57 58 56 56 59 63 64 66 66 60 53 57 73 73
72 75 81 76 71 67 68 71 72 77 70 69 70 69 72 63 55 52 47 44 39 40 43 51 55 57 58 59 55 53 55 58 59 62 65 73 57 49 49 47 51 64 74
75 77 78 77 74 71 71 71 69 71 70 74 68 68 67 64 57 49 45 42 37 39 44 47 50 53 56 51 52 55 57 59 57 57 66 65 60 46 43 46 52 48 55
78 80 77 77 77 73 72 71 70 72 77 83 73 72 68 63 53 52 43 37 36 41 41 46 50 55 51 50 54 55 58 59 59 69 75 75 79 54 44 46 51 52 54
83 80 76 76 83 80 74 74 72 78 82 88 79 72 68 59 58 50 41 39 40 38 42 46 53 53 54 56 57 59 60 63 70 72 76 71 80 69 57 53 59 63 64
81 83 75 76 83 83 79 77 75 75 82 89 71 67 64 58 55 47 37 38 31 35 41 46 46 52 54 57 64 67 67 65 74 74 73 79 78 73 64 57 57 53 53
83 82 77 80 87 88 84 81 80 78 91 80 79 69 72 61 57 38 31 30 28 31 37 45 47 51 57 63 68 70 70 70 73 73 76 77 76 71 70 71 73 67 58
83 80 80 84 88 92 86 89 89 85 91 79 81 67 73 60 51 29 25 24 24 29 36 39 47 53 60 63 65 67 68 65 70 69 74 78 71 71 68 66 71 71 72
80 86 82 84 86 86 86 91 92 87 93 80 77 75 73 56 48 25 20 24 23 27 35 42 48 56 58 62 61 61 64 65 75 69 68 75 70 72 73 69 73 81 84
79 84 87 89 90 88 93 84 84 86 89 84 75 78 74 63 51 30 27 22 27 30 36 44 50 55 59 60 61 62 65 76 75 74 71 63 63 68 72 75 84 87 87
73 78 83 84 88 89 90 88 86 85 87 88 79 81 80 60 51 34 24 26 29 34 40 47 51 54 59 68 68 63 70 71 66 69 72 63 61 63 69 73 79 82 87
75 77 82 86 86 86 86 88 85 83 84 86 77 83 77 56 44 34 30 35 39 41 56 55 58 60 62 69 69 69 69 70 73 75 71 69 71 64 64 71 74 80 83
74 75 80 83 84 83 87 84 85 83 85 85 79 86 71 52 45 36 39 40 43 47 53 53 60 56 57 62 69 65 63 64 66 75 76 70 69 66 65 70 74 74 78
81 82 80 79 79 83 81 81 83 87 90 86 91 88 74 52 41 36 34 42 43 46 51 54 56 60 57 60 66 66 65 61 59 81 84 75 64 59 64 64 66 71 77
85 85 85 84 81 83 77 80 85 88 91 91 92 81 70 53 37 36 34 43 42 42 45 48 51 54 56 57 59 59 57 64 62 67 77 79 72 66 70 65 66 64 70
83 85 84 83 83 82 76 82 86 87 83 87 84 71 65 52 31 35 38 43 44 39 39 44 49 51 56 56 53 51 53 53 60 58 68 71 71 70 69 69 70 69 64
78 81 85 87 87 84 81 82 86 83 81 83 75 75 61 44 31 31 37 43 43 39 41 42 42 49 53 56 51 50 55 58 60 68 67 71 67 64 62 71 75 77 76
65 66 73 78 81 85 85 84 86 81 84 86 82 74 57 39 33 33 36 37 39 42 49 46 45 46 54 54 53 53 58 65 65 71 68 71 69 62 62 74 80 86 85
60 59 62 71 78 81 85 83 87 86 84 80 76 67 52 40 33 31 34 38 40 51 58 47 44 49 54 56 57 59 62 68 68 72 74 77 71 61 64 66 79 87 84
58 58 57 68 73 80 83 85 86 82 82 78 65 58 49 45 39 37 50 49 35 44 56 53 53 61 63 58 57 67 72 66 69 70 73 72 68 65 63 65 78 81 93
55 54 57 59 69 74 81 84 83 83 82 76 69 58 56 61 50 41 58 60 43 56 54 54 52 54 49 57 58 58 70 65 67 62 56 65 65 64 65 63 67 77 84
51 54 56 57 65 71 76 76 74 77 74 70 70 68 70 73 60 48 53 56 52 56 66 60 63 58 64 59 55 55 58 54 54 62 57 57 56 62 64 62 63 70 78
48 53 58 53 58 67 72 72 74 70 71 68 70 78 79 78 56 47 48 54 50 55 53 54 61 59 56 60 57 58 53 57 58 59 65 62 60 62 60 63 61 62 69
47 46 55 52 48 59 66 72 74 77 76 74 76 81 76 71 61 50 46 42 43 46 48 43 49 51 53 47 50 54 52 50 53 57 63 63 62 61 61 62 64 65 64
46 47 49 51 51 47 53 63 68 74 76 79 75 75 74 72 65 57 52 47 42 41 40 38 37 37 37 36 44 49 52 56 56 54 57 59 63 60 57 58 58 61 62

GFSSE_prec_cthk_171.txt.gz
RH
86 84 84 86 84 83 80 78 81 83 75 72 76 74 68 61 60 55 56 47 45 43 52 59 64 64 63 61 61 60 64 66 66 64 61 62 69 70 66 78 86 85 62
74 76 80 83 82 79 80 77 78 81 74 68 70 73 70 60 55 51 51 46 40 40 48 54 57 58 59 58 57 59 60 56 55 58 62 63 64 65 60 61 59 76 68
78 78 80 77 72 71 72 77 78 76 71 67 68 72 65 56 52 49 43 39 39 40 49 53 55 58 60 58 57 58 60 65 67 66 68 69 51 47 46 49 62 88 71
71 76 76 71 69 68 69 71 76 71 70 67 69 70 63 59 48 45 43 41 40 45 47 51 55 56 55 55 61 63 62 60 62 63 86 54 57 36 43 52 53 63 74
70 79 79 77 73 70 72 71 74 71 75 70 73 75 64 56 50 44 38 40 39 42 46 50 55 55 53 52 55 61 61 60 64 72 69 78 98 49 44 48 52 53 51
71 79 74 76 76 71 71 70 70 75 85 82 77 72 66 58 51 44 42 40 39 42 48 53 54 54 55 57 59 58 63 74 77 80 81 67 66 57 52 50 63 61 59
77 77 77 72 81 78 72 73 74 77 83 84 71 69 62 60 53 41 39 37 37 42 46 50 55 57 59 63 65 63 61 63 71 81 79 80 72 67 58 52 53 56 58
80 79 75 75 82 83 78 78 76 74 87 75 74 69 61 59 50 36 34 29 35 41 47 49 53 55 57 62 62 57 59 65 74 74 76 76 70 69 66 65 67 64 57
82 88 75 79 86 82 84 83 82 80 91 81 77 70 64 56 40 29 28 27 31 36 41 43 49 54 57 58 57 61 67 69 84 66 88 76 70 69 66 65 70 74 72
84 85 83 85 86 89 89 88 90 88 92 85 72 76 64 50 32 23 22 23 28 35 37 44 52 55 56 55 55 63 62 75 94 63 62 66 72 69 70 75 80 88 89
83 82 81 85 92 91 87 88 89 89 89 85 73 75 66 57 37 26 32 23 27 32 39 47 52 56 58 53 49 52 61 92 80 64 70 59 59 63 71 78 87 88 85
76 84 92 86 90 95 85 88 92 88 86 83 79 76 66 73 45 39 25 26 32 36 45 49 52 56 59 69 78 87 62 58 71 63 61 65 65 63 65 73 79 86 88
75 77 80 82 87 89 84 90 94 84 83 84 86 88 67 67 43 32 28 33 37 48 55 54 52 60 65 65 62 80 68 63 75 78 60 64 69 68 71 74 76 77 79
73 78 79 80 86 88 89 89 89 83 81 84 82 86 67 57 44 46 41 48 50 58 59 60 77 64 62 60 66 56 68 62 74 74 71 62 61 67 69 67 69 74 79
72 73 74 77 80 83 83 85 82 82 82 83 77 88 65 59 51 41 45 48 56 54 63 60 63 67 60 92 69 59 70 63 58 73 86 71 66 70 72 67 63 65 68
77 78 82 79 76 78 83 79 80 81 86 83 82 86 71 58 45 45 40 49 54 57 61 60 59 60 58 61 66 61 58 70 57 55 66 70 75 71 74 74 71 63 62
80 82 79 79 80 82 76 77 80 86 87 86 91 90 67 55 39 43 44 51 56 48 43 52 53 55 61 67 64 61 67 66 74 63 68 74 70 68 74 80 82 79 68
82 80 81 81 80 83 73 76 83 87 88 92 89 78 69 54 37 38 46 51 52 48 50 55 51 56 60 61 60 59 62 67 62 73 83 69 69 70 77 84 87 86 82
77 78 77 82 84 82 79 79 85 84 80 85 76 74 65 50 38 39 47 50 42 52 53 51 64 47 65 57 76 67 73 77 65 76 72 72 64 61 79 77 79 85 84
59 63 69 76 77 80 81 78 81 81 79 81 75 82 64 51 41 33 43 42 40 51 53 52 43 56 43 54 52 58 55 66 66 74 74 72 64 63 75 71 83 86 85
55 56 58 62 70 75 80 81 83 84 83 83 87 85 61 51 40 27 45 35 33 50 85 47 56 57 61 78 71 81 68 73 74 71 67 65 63 62 62 69 96 74 79
51 54 56 58 68 74 79 82 83 85 84 78 73 61 56 46 43 41 49 61 44 49 42 49 50 58 54 46 46 52 83 90 86 63 51 66 48 74 73 58 66 67 72
48 51 51 54 61 68 76 78 80 83 82 78 70 55 55 63 54 43 47 59 62 41 62 53 49 53 60 80 51 50 56 71 53 74 61 63 42 55 54 69 54 57 63
43 47 53 52 57 63 70 72 76 76 77 75 62 61 58 65 69 62 48 52 51 53 60 63 50 58 64 60 57 58 48 50 53 57 65 74 62 72 53 52 75 89 61
50 45 49 53 51 60 65 71 71 70 70 65 66 72 73 75 75 59 47 47 50 45 46 43 52 52 60 59 56 52 55 52 50 49 50 65 65 69 55 50 53 52 72
52 47 43 51 48 53 60 65 69 68 64 67 65 82 80 80 78 64 50 44 42 41 43 47 44 41 41 46 44 48 51 58 60 63 60 60 59 57 58 55 51 69 63

GFSSE_prec_cthk_174.txt.gz
RH
85 84 80 80 81 79 78 80 81 77 67 71 69 66 62 58 55 54 45 43 42 50 54 57 57 58 58 58 55 55 57 60 62 65 61 60 64 64 63 67 68 66 52
76 81 78 78 79 79 78 77 79 73 65 68 71 68 61 54 50 49 44 38 39 47 53 56 56 58 58 56 56 59 57 54 58 64 64 63 66 61 56 56 54 64 56
72 73 75 77 76 76 77 76 77 74 64 64 71 68 57 51 48 42 37 38 38 50 54 53 52 53 55 56 56 54 59 66 77 88 97 75 58 53 42 48 61 63 61
73 72 77 77 73 69 72 73 75 69 64 64 70 66 56 48 43 41 39 39 45 49 48 50 52 50 49 53 56 58 56 62 66 80 70 82 67 50 47 44 57 61 61
69 72 69 68 66 65 69 70 70 69 68 64 70 66 58 48 42 38 38 38 41 47 48 50 49 47 48 49 49 53 54 60 74 85 82 91 61 58 51 51 55 56 57
70 74 75 72 69 69 71 73 69 71 76 81 75 67 57 49 45 39 37 38 41 44 48 51 48 47 53 53 52 55 66 67 78 86 81 89 78 64 47 52 60 58 62
69 74 71 75 75 70 70 69 70 78 79 79 70 65 57 50 42 37 37 40 41 45 50 51 48 49 56 55 53 57 64 76 72 75 74 69 63 57 53 53 58 58 59
74 71 70 76 79 79 74 76 74 76 82 70 66 59 57 48 37 34 33 35 41 43 46 48 47 46 51 53 55 60 62 65 86 80 72 61 60 58 56 59 59 59 60
76 74 66 72 81 83 82 79 75 75 78 74 66 63 55 44 32 30 29 32 38 40 45 46 43 48 51 55 60 61 63 67 65 68 75 67 61 62 61 63 66 70 70
78 90 74 69 80 82 83 82 81 80 84 79 67 68 50 37 25 25 25 28 33 35 40 43 45 48 50 52 59 74 67 70 82 94 76 61 54 58 61 69 74 73 71
77 93 79 74 80 83 84 81 84 83 83 80 69 61 47 33 22 22 25 26 30 33 40 47 49 51 63 67 62 63 70 80 80 78 78 67 56 55 60 65 71 69 74
76 81 77 81 93 92 86 83 82 86 82 76 69 66 66 53 34 26 23 26 28 34 45 53 54 58 75 81 69 77 85 91 70 73 69 62 62 57 61 64 69 73 70
76 77 82 90 83 81 86 83 85 82 79 74 72 75 80 64 45 28 25 28 36 47 51 54 61 71 82 92 82 94 85 75 74 67 60 60 60 59 58 62 65 69 70
73 73 75 67 75 88 82 86 86 80 76 74 76 80 72 48 43 34 37 34 43 55 50 68 60 65 68 75 61 70 76 63 84 72 63 62 64 62 57 56 57 62 64
74 71 81 76 83 85 84 89 85 79 78 79 78 75 59 47 49 39 49 42 53 62 76 72 79 67 60 72 58 51 79 64 54 49 61 63 73 69 64 55 53 55 60
72 74 75 76 75 77 88 81 79 78 77 79 74 75 55 49 38 40 38 42 64 62 67 58 53 50 75 70 58 53 57 58 62 56 77 71 71 73 72 68 59 52 54
78 81 80 84 79 78 81 77 77 78 79 80 76 78 58 45 31 38 33 35 43 59 56 44 43 46 55 73 59 57 64 61 77 70 77 73 66 69 74 78 74 61 54
78 79 78 82 79 77 78 74 74 78 82 79 79 85 60 45 33 31 35 39 52 39 36 42 40 48 57 68 74 56 69 77 77 69 70 67 62 68 71 79 75 71 68
73 77 78 78 79 80 76 72 79 80 82 86 86 78 62 45 29 29 38 55 69 38 58 56 67 48 74 54 78 64 68 76 65 68 75 82 70 60 71 81 79 74 74
58 64 71 75 80 81 79 73 79 80 87 93 80 73 61 47 30 30 46 65 47 40 47 47 53 50 41 46 61 65 59 57 62 68 68 66 65 64 74 70 74 78 79
52 54 56 60 70 75 80 73 76 75 73 76 72 74 66 55 35 29 37 44 26 40 56 45 40 47 57 75 61 71 64 67 72 80 57 57 65 74 70 69 74 80 80
48 50 53 56 60 67 74 78 76 75 72 77 74 79 82 71 38 22 33 41 32 38 50 47 41 55 93 46 49 46 66 68 68 65 59 57 53 58 61 68 65 78 75
43 46 50 51 54 63 68 77 79 82 79 78 76 80 69 49 38 31 36 53 55 42 40 69 47 47 48 61 72 52 53 80 59 65 68 77 60 82 89 56 91 96 74
49 43 48 51 51 58 68 74 75 77 81 80 73 60 50 50 52 43 43 44 73 68 41 65 53 49 67 60 64 52 51 48 46 53 61 67 79 65 74 73 73 64 57
54 48 44 50 51 55 61 68 70 73 77 73 73 63 53 54 53 58 54 48 48 46 48 51 49 83 51 59 54 50 51 48 43 43 45 49 55 63 71 66 66 60 46
53 53 45 42 51 50 59 64 68 72 72 70 67 66 63 64 67 64 57 44 41 43 40 43 41 36 38 40 42 41 43 45 51 56 58 55 53 53 56 65 63 57 54